[Iaude] MPEC T70: 2016 SH45 [a=2.66,e=0.57,i=8.9,H=19.4]

mpec at si.edu mpec at si.edu
Fri Oct 7 12:43:44 EDT 2016


M.P.E.C. 2016-T70                                Issued 2016 Oct. 7, 16:40 UT
 
     The Minor Planet Electronic Circulars contain information on unusual
         minor planets and routine data on comets.  They are published
    on behalf of Division F of the International Astronomical Union by the
          Minor Planet Center, Smithsonian Astrophysical Observatory,
                          Cambridge, MA 02138, U.S.A.

             Prepared using the Tamkin Foundation Computer Network

                              MPC at CFA.HARVARD.EDU
            URL http://www.minorplanetcenter.net/    ISSN 1523-6714


                                   2016 SH45
 
Observations:
     K16S45H* S2016 09 30.10234 19 53 10.55 -41 03 34.6          18   RLET070C51
     K16S45H  s2016 09 30.10234 1 + 2741.0152 - 4427.5234 - 4481.7588   ET070C51
     K16S45H  S2016 09 30.23324 19 53 29.75 -41 03 41.4                LET070C51
     K16S45H  s2016 09 30.23324 1 + 2737.0307 - 4375.5245 - 4534.9827   ET070C51
     K16S45H  S2016 09 30.23337 19 53 29.76 -41 03 41.4                LET070C51
     K16S45H  s2016 09 30.23337 1 + 2753.5354 - 4428.9576 - 4472.6397   ET070C51
     K16S45H  S2016 09 30.36427 19 53 49.06 -41 03 47.4                LET070C51
     K16S45H  s2016 09 30.36427 1 + 2749.5080 - 4377.0677 - 4525.9191   ET070C51
     K16S45H  S2016 09 30.49531 19 54 08.47 -41 03 53.4                LET070C51
     K16S45H  s2016 09 30.49531 1 + 2762.0106 - 4378.6024 - 4516.7957   ET070C51
     K16S45H  S2016 09 30.62634 19 54 27.96 -41 03 58.4                LET070C51
     K16S45H  s2016 09 30.62634 1 + 2774.5136 - 4380.0503 - 4507.7029   ET070C51
     K16S45H  S2016 09 30.75737 19 54 47.52 -41 04 03.9                LET070C51
     K16S45H  s2016 09 30.75737 1 + 2787.0492 - 4381.5129 - 4498.5226   ET070C51
     K16S45H  S2016 10 01.01943 19 55 26.91 -41 04 11.7                LET070C51
     K16S45H  s2016 10 01.01943 1 + 2812.1760 - 4384.3531 - 4480.0436   ET070C51
     K16S45H  S2016 10 01.08488 19 55 36.81 -41 04 13.4                LET070C51
     K16S45H  s2016 10 01.08488 1 + 2809.8692 - 4358.5408 - 4506.6153   ET070C51
     K16S45H  S2016 10 01.15046 19 55 46.74 -41 04 15.5                LET070C51
     K16S45H  s2016 10 01.15046 1 + 2824.7676 - 4385.7326 - 4470.7416   ET070C51
     K16S45H  S2016 10 01.21591 19 55 56.65 -41 04 17.0                LET070C51
     K16S45H  s2016 10 01.21591 1 + 2822.4281 - 4359.9343 - 4497.3926   ET070C51
     K16S45H  S2016 10 01.28137 19 56 06.60 -41 04 18.3                LET070C51
     K16S45H  s2016 10 01.28137 1 + 2819.9652 - 4334.0551 - 4523.8913   ET070C51
     K16S45H  S2016 10 01.28149 19 56 06.62 -41 04 18.7                LET070C51
     K16S45H  s2016 10 01.28149 1 + 2837.3704 - 4387.0609 - 4461.4274   ET070C51
     K16S45H  S2016 10 01.41240 19 56 26.61 -41 04 20.9                LET070C51
     K16S45H  s2016 10 01.41240 1 + 2832.5417 - 4335.5329 - 4514.5884   ET070C51
     K16S45H  S2016 10 01.47798 19 56 36.63 -41 04 21.8                LET070C51
     K16S45H  s2016 10 01.47798 1 + 2847.6339 - 4362.7341 - 4478.7115   ET070C51
     K16S45H  S2016 10 01.60901 19 56 56.76 -41 04 23.7                LET070C51
     K16S45H  s2016 10 01.60901 1 + 2860.2539 - 4364.0593 - 4469.3474   ET070C51
     K16S45H  S2016 10 01.73991 19 57 16.92 -41 04 24.3                LET070C51
     K16S45H  s2016 10 01.73991 1 + 2855.0808 - 4312.5297 - 4522.3962   ET070C51
     K16S45H  S2016 10 01.74004 19 57 16.93 -41 04 24.7                LET070C51
     K16S45H  s2016 10 01.74004 1 + 2872.8934 - 4365.3592 - 4459.9390   ET070C51
     K16S45H  S2016 10 02.13300 19 58 18.00 -41 04 25.6                LET070C51
     K16S45H  s2016 10 02.13300 1 + 2892.9670 - 4316.7438 - 4494.1484   ET070C51
     K16S45H |C2016 10 05.00691 20 06 07.12 -41 02 16.6          20.4 VuET070807
     K16S45H |C2016 10 05.01387 20 06 08.25 -41 02 15.9          20.2 VuET070807
     K16S45H |C2016 10 05.02079 20 06 09.37 -41 02 15.1          20.3 VuET070807
     K16S45H |C2016 10 06.00234 20 08 58.70 -41 00 32.2          20.2 VuET070807
     K16S45H |C2016 10 06.00754 20 08 59.54 -41 00 31.1          20.2 VuET070807
     K16S45H |C2016 10 06.01272 20 09 00.43 -41 00 30.5          20.5 VuET070807
     K16S45H KC2016 10 07.00153 20 11 55.48 -40 58 14.5          20.3 VuET070807
     K16S45H KC2016 10 07.00379 20 11 55.87 -40 58 14.2          20.1 VuET070807
     K16S45H KC2016 10 07.00629 20 11 56.28 -40 58 13.9          20.2 VuET070807
 
Observer details:
807 Cerro Tololo.  Observers T. Linder, R. Holmes.  0.61-m f/6.5 astrograph
    + CCD.
C51 WISE.  Measurers A. K. Mainzer, J. M. Bauer, T. Grav, J. R. Masiero,
    J. W. Dailey, R. M. Cutri, E. L. Wright, C. Nugent, S. Sonnett, E. Kramer.
 
Orbital elements:
2016 SH45                                                Earth MOID = 0.2267 AU
Epoch 2016 July 31.0 TT = JDT 2457600.5                 MPC
M 338.21823              (2000.0)            P               Q
n   0.22774649     Peri.  277.26570     +0.93793324     -0.31215341
a   2.6556342      Node   101.01266     +0.34643390     +0.86370818
e   0.5650799      Incl.    8.85703     -0.01627227     +0.39568729
P   4.33           H   19.4           G   0.15           U   5
Residuals in seconds of arc
160930 C51  0.1+  0.1+    161001 C51  0.1-  0.2-    161005 807  0.0   0.0
160930 C51  0.0   0.2-    161001 C51  0.1-  0.2-    161005 807  0.1+  0.2+
160930 C51  0.2-  0.1+    161001 C51  0.1-  0.3-    161006 807  0.0   0.4-
160930 C51  0.1-  0.1+    161001 C51  0.1+  0.3-    161006 807  0.3-  0.1+
160930 C51  0.0   0.0     161001 C51  0.0   0.0     161006 807  0.1+  0.0
160930 C51  0.1+  0.3+    161001 C51  0.2+  0.1-    161007 807  0.1+  0.1+
160930 C51  0.0   0.3-    161001 C51  0.0   0.3+    161007 807  0.1+  0.1+
161001 C51  0.0   0.2+    161001 C51  0.1-  0.2+    161007 807  0.1-  0.0
161001 C51  0.2+  0.2+    161002 C51  0.1-  0.1-
161001 C51  0.1+  0.1-    161005 807  0.0   0.0

Ephemeris:
2016 SH45                a,e,i = 2.66, 0.57, 9                   q = 1.1550
Date    TT    R. A. (2000) Decl.     Delta      r     Elong.  Phase     V
2016 09 07    19 19 16.3 -39 03 21   0.5120  1.3388   119.9    40.7    20.2
...
2016 09 22    19 36 08.2 -40 42 37   0.5061  1.2610   108.7    48.9    20.3
...
2016 09 30    19 52 55.5 -41 03 29   0.5026  1.2266   104.3    52.3    20.3
...
2016 10 06    20 08 58.2 -41 00 29   0.4994  1.2047   101.7    54.4    20.3
2016 10 07    20 11 55.1 -40 58 12   0.4988  1.2014   101.3    54.7    20.3
2016 10 08    20 14 56.5 -40 55 21   0.4982  1.1982   101.0    55.0    20.3
...
2016 10 14    20 34 35.2 -40 25 52   0.4943  1.1812    99.1    56.5    20.3
...
2016 10 22    21 04 17.4 -39 08 27   0.4892  1.1649    97.5    57.9    20.3
...
2016 11 06    22 07 23.4 -34 19 45   0.4838  1.1553    97.1    58.4    20.2

A. U. Tomatic                (C) Copyright 2016 MPC           M.P.E.C. 2016-T70




More information about the Iaude mailing list